Weather History for Franklin, NC

Change the Weather History Date:

Monday, November 4, 2013

  Actual Average (KTOC) Record (KTOC)
Temperature  
Mean Temperature 42 °F -  
Max Temperature 58 °F 66 °F - (-1)
Min Temperature 27 °F 44 °F - (-1)
Degree Days  
Heating Degree Days 22    
Moisture  
Dew Point 30 °F    
Average Humidity 73    
Maximum Humidity 96    
Minimum Humidity 33    
Precipitation  
Precipitation 0.00 in - - ()
Sea Level Pressure  
Sea Level Pressure 30.44 in    
Wind  
Wind Speed 1 mph (South)    
Max Wind Speed 7 mph    
Max Gust Speed -    
Visibility 10 miles    
Events      
Averages and records for this station are not official NWS values.
T = Trace of Precipitation, MM = Missing Value Source: NWS Daily Summary

Daily Weather History Graph

Daily Weather History Graph

Search for Another Location

Airport:

Trip Planner

Search our weather history database for the weather conditions in past years. The results will help you decide how hot, cold, wet, or windy it might be!

Date:

Astronomy

Nov. 04, 2013 Rise Set
Actual Time 6:58 AM EST 5:35 PM EST
Civil Twilight 6:31 AM EST 6:02 PM EST
Nautical Twilight 6:01 AM EST 6:32 PM EST
Astronomical Twilight 5:31 AM EST 7:02 PM EST
Moon 8:05 AM EST (11/4) 6:42 PM EST (11/4)
Length of Visible Light 11h 30m
Length of Day
10h 37m
New Moon, 2% of the Moon is Illuminated
Nov 4
New Moon
Nov 10
First Quarter
Nov 17
Full
Nov 25
Last Quarter
Dec 2
New

Hourly Weather History & Observations

Time (EST) Temp. Dew Point Humidity Pressure Visibility Wind Dir Wind Speed Gust Speed Precip Events Conditions
12:15 AM 32.0 °F 30.6 °F 94% 30.37 in 10.0 mi Calm Calm - N/A   Clear
12:35 AM 32.0 °F 30.4 °F 94% 30.38 in 7.0 mi Calm Calm - N/A   Clear
12:55 AM 31.5 °F 29.8 °F 94% 30.38 in 10.0 mi Calm Calm - N/A   Clear
1:15 AM 31.5 °F 29.7 °F 93% 30.39 in 7.0 mi Calm Calm - N/A   Clear
1:35 AM 30.7 °F 28.8 °F 92% 30.39 in 10.0 mi Calm Calm - N/A   Clear
1:55 AM 31.8 °F 30.2 °F 94% 30.39 in 7.0 mi Calm Calm - N/A   Clear
2:15 AM 30.6 °F 28.9 °F 94% 30.39 in 10.0 mi Calm Calm - N/A   Clear
2:35 AM 30.2 °F 28.8 °F 94% 30.39 in 7.0 mi Calm Calm - N/A   Clear
2:55 AM 30.2 °F 28.9 °F 95% 30.39 in 10.0 mi Calm Calm - N/A   Clear
3:15 AM 30.0 °F 28.8 °F 95% 30.40 in 10.0 mi Calm Calm - N/A   Clear
3:35 AM 29.7 °F 28.2 °F 94% 30.40 in 10.0 mi Calm Calm - N/A   Clear
3:55 AM 29.3 °F 28.0 °F 95% 30.40 in 7.0 mi Calm Calm - N/A   Clear
4:15 AM 29.5 °F 28.2 °F 95% 30.41 in 7.0 mi Calm Calm - N/A   Clear
4:35 AM 28.8 °F 27.5 °F 95% 30.41 in 10.0 mi Calm Calm - N/A   Clear
4:55 AM 28.9 °F 27.5 °F 94% 30.42 in 10.0 mi Calm Calm - N/A   Clear
5:15 AM 28.8 °F 27.5 °F 95% 30.43 in 10.0 mi Calm Calm - N/A   Clear
5:35 AM 28.4 °F 27.3 °F 96% 30.44 in 7.0 mi Calm Calm - N/A   Clear
5:55 AM 27.9 °F 26.8 °F 96% 30.44 in 7.0 mi Calm Calm - N/A   Clear
6:15 AM 28.4 °F 27.3 °F 96% 30.44 in 10.0 mi Calm Calm - N/A   Clear
6:35 AM 28.2 °F 26.6 °F 94% 30.44 in 10.0 mi Calm Calm - N/A   Clear
6:55 AM 28.2 °F 26.6 °F 94% 30.44 in 10.0 mi Calm Calm - N/A   Clear
7:15 AM 28.2 °F 27.0 °F 95% 30.46 in 10.0 mi Calm Calm - N/A   Clear
7:35 AM 28.9 °F 27.5 °F 94% 30.46 in 7.0 mi Calm Calm - N/A   Clear
7:55 AM 30.0 °F 28.8 °F 95% 30.47 in 7.0 mi Calm Calm - N/A   Clear
8:15 AM 31.1 °F 30.0 °F 96% 30.49 in 7.0 mi Calm Calm - N/A   Clear
8:35 AM 33.6 °F 32.2 °F 94% 30.49 in 10.0 mi Calm Calm - N/A   Clear
8:55 AM 35.8 °F 34.0 °F 93% 30.49 in 10.0 mi Calm Calm - N/A   Clear
9:15 AM 37.6 °F 35.1 °F 91% 30.48 in 10.0 mi Calm Calm - N/A   Clear
9:35 AM 40.3 °F 35.8 °F 84% 30.48 in 10.0 mi Calm Calm - N/A   Clear
9:55 AM 44.6 °F 37.6 °F 76% 30.48 in 10.0 mi Calm Calm - N/A   Clear
10:15 AM 48.9 °F 35.4 °F 60% 30.47 in 10.0 mi Calm Calm - N/A   Clear
10:35 AM 50.5 °F 32.2 °F 49% 30.46 in 10.0 mi Calm Calm - N/A   Clear
10:55 AM 52.0 °F 32.5 °F 48% 30.46 in 10.0 mi SW 6.9 mph - N/A   Clear
11:15 AM 53.4 °F 32.4 °F 45% 30.46 in 10.0 mi SE 3.5 mph - N/A   Clear
11:35 AM 54.3 °F 31.3 °F 42% 30.46 in 10.0 mi Calm Calm - N/A   Clear
11:55 AM 55.8 °F 32.4 °F 41% 30.46 in 10.0 mi SSE 4.6 mph - N/A   Clear
12:15 PM 55.8 °F 31.6 °F 40% 30.44 in 10.0 mi South 3.5 mph - N/A   Clear
12:35 PM 56.8 °F 31.8 °F 39% 30.43 in 10.0 mi West 4.6 mph - N/A   Clear
12:55 PM 55.6 °F 31.1 °F 39% 30.43 in 10.0 mi SE 3.5 mph - N/A   Clear
1:15 PM 56.8 °F 31.1 °F 38% 30.42 in 10.0 mi WSW 3.5 mph - N/A   Clear
1:35 PM 57.0 °F 31.1 °F 37% 30.42 in 10.0 mi SSW 5.8 mph - N/A   Clear
1:55 PM 57.6 °F 30.4 °F 36% 30.41 in 10.0 mi SSW 5.8 mph - N/A   Clear
2:15 PM 57.9 °F 29.8 °F 34% 30.41 in 10.0 mi South 5.8 mph - N/A   Clear
2:35 PM 57.9 °F 29.7 °F 34% 30.41 in 10.0 mi SSW 4.6 mph - N/A   Clear
2:55 PM 58.6 °F 29.8 °F 34% 30.41 in 10.0 mi SE 5.8 mph - N/A   Clear
3:15 PM 57.7 °F 28.9 °F 33% 30.40 in 10.0 mi SSE 4.6 mph - N/A   Clear
3:35 PM 57.4 °F 28.9 °F 34% 30.40 in 10.0 mi SSE 4.6 mph - N/A   Clear
3:55 PM 57.2 °F 28.8 °F 34% 30.41 in 10.0 mi South 4.6 mph - N/A   Clear
4:15 PM 55.4 °F 29.1 °F 37% 30.41 in 10.0 mi SW 4.6 mph - N/A   Clear
4:35 PM 56.3 °F 28.9 °F 35% 30.41 in 10.0 mi Calm Calm - N/A   Clear
4:55 PM 54.5 °F 28.6 °F 37% 30.41 in 10.0 mi Calm Calm - N/A   Clear
5:15 PM 52.9 °F 28.8 °F 40% 30.41 in 10.0 mi SSE 3.5 mph - N/A   Clear
5:35 PM 51.8 °F 29.1 °F 42% 30.42 in 10.0 mi Calm Calm - N/A   Clear
5:55 PM 50.7 °F 29.1 °F 43% 30.42 in 10.0 mi Calm Calm - N/A   Clear
6:15 PM 49.1 °F 29.7 °F 47% 30.42 in 10.0 mi Calm Calm - N/A   Clear
6:35 PM 45.5 °F 31.8 °F 59% 30.42 in 10.0 mi Calm Calm - N/A   Clear
6:55 PM 42.1 °F 32.4 °F 68% 30.44 in 10.0 mi Calm Calm - N/A   Clear
7:15 PM 40.8 °F 33.4 °F 75% 30.44 in 10.0 mi Calm Calm - N/A   Clear
7:35 PM 39.4 °F 32.5 °F 76% 30.44 in 10.0 mi Calm Calm - N/A   Clear
7:55 PM 37.8 °F 31.8 °F 79% 30.45 in 10.0 mi Calm Calm - N/A   Clear
8:15 PM 35.8 °F 31.1 °F 83% 30.46 in 10.0 mi Calm Calm - N/A   Clear
8:35 PM 35.6 °F 32.0 °F 87% 30.46 in 10.0 mi Calm Calm - N/A   Clear
8:55 PM 34.7 °F 30.9 °F 86% 30.47 in 10.0 mi Calm Calm - N/A   Clear
9:15 PM 35.2 °F 31.8 °F 87% 30.48 in 10.0 mi Calm Calm - N/A   Clear
9:35 PM 34.5 °F 31.5 °F 89% 30.49 in 10.0 mi Calm Calm - N/A   Clear
9:55 PM 33.3 °F 30.9 °F 91% 30.49 in 10.0 mi Calm Calm - N/A   Clear
10:15 PM 33.1 °F 30.7 °F 91% 30.49 in 10.0 mi Calm Calm - N/A   Clear
10:35 PM 32.5 °F 30.9 °F 94% 30.49 in 10.0 mi Calm Calm - N/A   Clear
10:55 PM 32.2 °F 30.2 °F 92% 30.49 in 10.0 mi Calm Calm - N/A   Clear
11:15 PM 32.4 °F 30.7 °F 94% 30.48 in 10.0 mi Calm Calm - N/A   Clear
11:35 PM 32.0 °F 30.2 °F 93% 30.48 in 10.0 mi Calm Calm - N/A   Clear
11:55 PM 32.2 °F 30.6 °F 94% 30.48 in 10.0 mi Calm Calm - N/A   Clear